Location: B�rnsdorf
(46.9500°N, 15.5667°E)
Time: 18:42:51
(UTC+00:00)

Daily predictions for brighter satellites

Satellite Brightness Start Highest point End
(mag) Time Altitude Azimuth Time Altitude Azimuth Time Altitude Azimuth
Cosmos 1470 Rocket 3.7 16:59:34 10° S 17:03:47 51° E 17:08:05 10° NNE
COSMOS 2487 3.0 17:01:59 10° N 17:05:15 37° ENE 17:08:28 10° SE
STARLINK-1011 3.8 17:01:55 10° WSW 17:06:03 75° NNW 17:10:12 10° ENE
STARLINK-1025 4.3 17:04:03 10° W 17:07:13 34° NNW 17:10:23 10° NE
STARLINK-1035 3.9 17:03:06 10° WSW 17:07:21 70° NNW 17:11:37 10° ENE
STARLINK-1050 4.4 17:04:04 10° SSW 17:07:53 37° SE 17:11:43 10° ENE
Lacrosse 5 rocket 3.1 17:04:18 10° NW 17:07:59 24° N 17:11:44 10° ENE
NOSS 2-3 (E) 3.7 17:03:42 10° SW 17:08:01 87° SE 17:13:12 10° NE
STARLINK-43 3.7 17:04:28 10° WNW 17:08:05 51° NNE 17:11:43 10° E
STARLINK-1031 3.9 17:04:03 10° WSW 17:08:08 66° NNW 17:12:15 10° ENE
YAOGAN 6 3.4 17:05:42 10° S 17:09:07 55° W 17:12:34 10° NNW
STARLINK-1017 4.4 17:06:09 10° W 17:09:18 33° NNW 17:12:28 10° NE
Envisat 4.1 17:04:39 10° S 17:09:35 51° W 17:14:33 10° NNW
Cosmos 1862 Rocket 3.5 17:05:40 10° N 17:10:03 82° E 17:14:26 10° S
Okean 1-7 4.0 17:06:45 10° NNE 17:10:28 27° ENE 17:14:12 10° SE
Okean 1 4.5 17:07:22 10° NNE 17:10:34 23° ENE 17:13:46 10° SE
STARLINK-1036 3.8 17:06:55 10° WSW 17:11:02 70° NNW 17:15:11 10° ENE
Lacrosse 5 3.1 17:07:36 10° S 17:11:40 24° SE 17:15:43 10° ENE
STARLINK-1055 4.2 17:08:57 10° SSW 17:12:49 40° SE 17:16:43 10° ENE
COSMO-SKYMED 1 2.6 17:09:25 10° NNE 17:13:48 83° ESE 17:18:09 10° SSW
Gbstr 26 Del rocket 3.4 17:11:02 10° SW 17:14:47 45° SE 17:19:11 10° ENE
USA 234 4.2 17:09:38 10° NE 17:15:36 39° N 17:21:35 10° WNW
STARLINK-1048 4.4 17:12:32 10° WNW 17:15:40 32° N 17:18:49 10° NE
STARLINK-1044 3.9 17:11:55 10° WSW 17:16:02 66° NNW 17:20:10 10° ENE
STARLINK-1022 4.1 17:13:51 10° SSW 17:17:46 43° SE 17:21:43 10° ENE
STARLINK-1049 4.4 17:14:41 10° WNW 17:17:48 32° N 17:20:57 10° NE
STARLINK-1027 4.1 17:13:49 10° WSW 17:18:02 60° NNW 17:22:16 10° ENE
Cosmos 2369 Rocket 2.7 17:12:30 10° SW 17:18:08 68° WNW 17:23:50 10° NNE
Cosmos 405 3.8 17:15:11 10° N 17:18:22 30° ENE 17:21:32 10° SE
STARLINK-1051 4.4 17:16:52 10° WNW 17:19:59 32° N 17:23:07 10° NE
STARLINK-1028 4.5 17:18:30 10° WNW 17:21:38 31° N 17:24:46 10° NE
Cosmos 1812 4.1 17:18:10 10° NNW 17:21:53 44° W 17:25:33 10° SSW
STARLINK-1042 4.0 17:18:47 10° SW 17:22:45 47° SE 17:26:40 10° ENE
NOSS 2-3 (D) 3.9 17:18:50 10° SW 17:23:11 77° NW 17:28:22 10° NE
STARLINK-1021 4.5 17:20:43 10° WNW 17:23:51 31° N 17:26:58 10° NE
Cosmos 1898 Rocket 3.8 17:18:57 10° NNW 17:23:57 47° ENE 17:28:57 10° SE
Cosmos 44 Rocket 3.5 17:19:48 10° NNW 17:24:25 48° NE 17:29:03 10° ESE
Cosmos 2242 Rocket 3.6 17:20:45 10° N 17:25:19 70° E 17:29:52 10° SSE
STARLINK-1037 4.0 17:21:49 10° WSW 17:25:55 60° NNW 17:30:02 10° ENE
STARLINK-1019 4.5 17:22:55 10° WNW 17:26:02 31° N 17:29:10 10° NE
Cosmos 1763 Rocket 4.2 17:22:08 10° SSE 17:26:42 32° E 17:31:20 10° NE
Cosmos 1703 Rocket 3.8 17:23:17 10° N 17:27:37 47° ENE 17:31:56 10° SSE
STARLINK-1056 3.9 17:23:42 10° SW 17:27:42 50° SE 17:31:26 12° ENE
SJ 16-02 1.7 17:24:21 10° N 17:28:35 43° ENE 17:32:45 10° SE
CENTAUR R/B 4.1 17:22:32 10° NW 17:28:54 28° NNE 17:35:27 12° ENE
ARGOS 4.2 17:25:05 10° ESE 17:29:25 25° ENE 17:33:46 10° N
STARLINK-48 4.3 17:26:08 10° WNW 17:29:47 37° N 17:32:51 13° ENE
Meteor 1-25 Rocket 4.3 17:24:33 10° S 17:30:03 54° E 17:35:30 10° NNE
STARLINK-1059 4.1 17:26:55 10° WSW 17:31:00 57° NNW 17:35:01 10° ENE
Okean-O 4.2 17:27:01 10° S 17:31:12 41° W 17:35:26 10° NNW
STARLINK-1054 3.8 17:28:37 10° SW 17:32:39 54° SE 17:36:12 13° ENE
NOSS 3-1 (A) 3.9 17:27:27 10° WSW 17:32:59 59° NW 17:39:30 10° NE
STARLINK-1023 4.5 17:30:30 10° WNW 17:33:25 28° N 17:36:06 11° NE
USA 186 3.5 17:34:04 13° ENE 17:34:04 13° ENE 17:35:08 10° NE
Cosmos 1939 Rocket 2.9 17:30:35 10° SSE 17:34:43 87° ENE 17:38:53 10° NNW
STARLINK-1057 4.2 17:31:56 10° W 17:36:00 54° NNW 17:39:48 12° ENE
STARLINK-26 4.2 17:33:24 10° NW 17:36:37 34° NNE 17:38:56 16° ENE
Cosmos 1869 Rocket 4.2 17:32:45 10° SSE 17:36:38 31° E 17:40:29 10° NNE
CSL-04 Rocket 3.7 17:31:52 10° SSE 17:37:24 90° ENE 17:42:53 10° NNW
STARLINK-1062 3.7 17:33:32 10° SW 17:37:37 59° SE 17:40:59 15° ENE
STARLINK-1034 4.2 17:36:56 10° W 17:40:59 52° NNW 17:44:34 13° NE
CZ-2D R/B 3.4 17:38:32 10° S 17:42:25 80° WSW 17:46:20 10° NNW
STARLINK-1053 3.7 17:38:30 10° SW 17:42:35 63° SE 17:45:47 16° ENE
ATLAS 3B R/B 4.1 17:38:41 10° NNW 17:43:40 21° NNE 17:48:15 11° ENE
CZ-2C R/B 4.0 17:39:42 10° SE 17:44:47 33° ENE 17:49:45 10° N
STARLINK-1068 4.3 17:41:57 10° W 17:45:59 49° NNW 17:49:21 14° NE
CZ-4 R/B 2.6 17:42:01 10° S 17:46:03 47° W 17:50:04 10° NNW
STARLINK-80 3.8 17:42:38 10° WNW 17:46:23 49° NNE 17:48:42 21° E
STARLINK-1061 3.6 17:43:26 10° SW 17:47:32 68° SSE 17:50:33 18° ENE
Lacrosse 4 Rocket 4.5 17:49:23 10° NNW 17:49:37 10° NNW 17:49:51 10° NNW
YAOGAN 1 3.3 17:45:58 10° S 17:50:13 56° W 17:54:30 10° NNW
STARLINK-1067 3.6 17:48:24 10° SW 17:52:31 73° SSE 17:55:20 20° ENE
Ariane Rocket 3.1 17:48:05 10° SSE 17:53:05 58° ENE 17:58:06 10° N
Cosmos 540 Rocket 4.3 17:48:55 10° SSE 17:53:07 26° E 17:57:19 10° NE
STARLINK-33 4.3 17:51:39 10° NW 17:54:34 29° N 17:56:01 20° NE
SJ-6B 3.7 17:53:43 23° E 17:54:44 26° ENE 17:57:56 10° N
Cosmos 489 Rocket 4.4 17:48:40 10° S 17:54:58 71° ESE 18:01:16 10° NNE
Okean 3 4.3 17:51:48 10° NNE 17:55:26 28° ENE 17:56:53 22° ESE
STARLINK-55 4.3 17:53:01 10° NW 17:55:58 29° N 17:57:20 21° NE
STARLINK-1060 4.4 17:51:58 10° W 17:55:58 46° NNW 17:58:55 17° NE
USA 116 4.4 17:52:33 10° N 17:56:44 66° WNW 18:01:24 10° SSW
STARLINK-66 4.3 17:53:55 10° NW 17:56:51 29° N 17:58:12 21° NE
FREGAT/IRIS 3.4 17:57:40 28° NE 17:57:40 28° NE 17:59:42 10° N
STARLINK-1058 3.5 17:53:21 10° SW 17:57:28 79° SSE 18:00:06 22° ENE
STARLINK-28 4.2 17:54:37 10° NW 17:57:35 30° N 17:58:52 22° NE
STARLINK-42 4.3 17:55:30 10° NW 17:58:23 28° N 17:59:38 22° NE
Cosmos 990 Rocket 3.9 17:53:14 10° NNW 17:58:25 87° ENE 18:03:34 10° SSE
Cosmos 1943 Rocket 4.1 17:56:13 10° WSW 18:00:59 28° NW 18:05:45 10° N
STARLINK-1030 4.5 17:57:02 10° W 18:01:01 44° NNW 18:03:43 18° NE
Cosmos 1933 Rocket 4.3 17:57:10 10° SSW 18:01:28 56° WNW 18:05:48 10° N
STARLINK-1043 3.5 17:58:19 10° WSW 18:02:27 84° SSE 18:04:53 24° ENE
Cosmos 2297 Rocket 3.1 17:57:50 10° NNW 18:02:48 30° NE 18:05:00 23° E
SJ-11-01 4.2 17:59:02 10° SSE 18:03:39 68° ENE 18:08:19 10° N
Nadezhda 4 Rocket 4.0 17:59:23 10° N 18:05:39 62° ENE 18:11:55 10° SSE
SL-08 RB Rocket 4.5 18:04:26 26° E 18:05:42 30° ENE 18:09:37 10° N
NOSS 2 (A) 4.5 18:03:25 10° NW 18:05:52 57° SW 18:06:38 34° S
STARLINK-1020 4.5 18:02:02 10° W 18:06:00 43° NNW 18:08:30 20° NE
STARLINK-1065 3.5 18:03:06 10° WSW 18:07:15 89° SSE 18:09:29 26° ENE
IRS-1A Rocket 4.1 18:03:17 10° SSE 18:08:45 74° ENE 18:14:16 10° NNW
ATLAS 2AS CENTAUR R/B 4.5 18:04:06 10° SE 18:06:09 14° SE 18:06:09 14° SE
Cosmos 1346 Rocket 4.5 18:05:45 10° SW 18:09:25 35° WNW 18:13:05 10° N
Cosmos 1464 Rocket 4.0 18:05:45 10° S 18:12:08 89° E 18:18:34 10° N
STARLINK-1063 3.6 18:08:14 10° WSW 18:12:23 86° NNW 18:14:25 29° ENE
Cosmos 1937 Rocket 3.4 18:07:54 10° NNW 18:13:12 86° ENE 18:18:23 10° SSE
ADEOS Rocket 3.7 18:07:50 10° NNE 18:15:40 80° WNW 18:23:14 10° SSW
Cosmos 1515 3.6 18:11:57 10° N 18:15:41 57° ENE 18:17:27 28° SSE
Genesis I 3.3 18:12:27 10° NNW 18:16:15 52° NE 18:17:06 42° E
STARLINK-1064 3.6 18:13:13 10° WSW 18:17:22 81° NNW 18:19:12 32° ENE
USA 238 DEB 4.1 18:11:00 10° NW 18:17:58 52° NE 18:21:52 27° ESE
USA 238 4.1 18:11:06 10° NW 18:18:04 52° NE 18:21:55 27° ESE
Meteor 2-11 Rocket 4.5 18:12:20 10° S 18:18:26 84° W 18:24:34 10° N
Cosmos 1263 4.4 18:15:39 10° N 18:19:44 77° E 18:21:35 25° SSE
Cosmos 2227 Rocket 2.9 18:16:51 10° NNW 18:22:03 36° NE 18:23:26 31° E
STARLINK-1041 3.7 18:18:12 10° WSW 18:22:20 77° NNW 18:23:59 35° NE
SL-24 DEB 4.2 18:19:35 10° SSE 18:24:13 64° E 18:28:49 10° N
Cosmos 2221 Rocket 3.5 18:21:35 10° N 18:26:05 65° ENE 18:28:33 25° SSE
STARLINK-1038 3.7 18:23:10 10° WSW 18:27:18 72° NNW 18:28:45 39° NE
H-2A R/B 2.1 18:24:46 10° SSE 18:30:10 84° ENE 18:35:40 10° NNW
STARLINK-1046 3.8 18:28:11 10° WSW 18:32:19 68° NNW 18:33:33 42° NE
Cosmos 2034 Rocket 3.9 18:28:31 10° S 18:34:41 86° W 18:40:53 10° N
STARLINK-22 4.3 18:33:29 10° NW 18:36:16 32° N 18:36:16 32° N
STARLINK-1039 3.9 18:33:13 10° WSW 18:37:20 65° NNW 18:38:22 46° NE
Cosmos 372 Rocket 4.0 18:32:32 10° NNW 18:37:46 62° ENE 18:39:10 45° ESE
STARLINK-41 4.2 18:34:58 10° NW 18:37:41 33° N 18:37:41 33° N
Cosmos 220 Rocket 4.4 18:33:50 10° SSW 18:38:05 60° WNW 18:42:20 10° NNE
STARLINK-1016 4.5 18:35:47 10° WNW 18:38:43 29° N 18:38:43 29° N
STARLINK-1008 4.5 18:37:27 10° WNW 18:40:20 30° N 18:40:20 30° N
STARLINK-1045 3.9 18:38:13 10° WSW 18:42:19 61° NNW 18:43:08 49° NNE
STARLINK-75 4.2 18:39:18 10° NW 18:41:58 35° N 18:41:58 35° N
STARLINK-58 4.3 18:40:17 10° NW 18:43:17 35° N 18:43:17 35° N
STARLINK-24 4.4 18:39:54 10° WNW 18:43:40 37° N 18:43:52 37° NNE
Resurs 1-3 4.1 18:44:36 42° NE 18:44:36 42° NE 18:48:04 10° N
STARLINK-62 4.3 18:41:59 10° NW 18:44:55 35° N 18:44:55 35° N
STARLINK-43 4.4 18:42:30 10° WNW 18:45:57 37° SW 18:46:22 36° SSW
STARLINK-34 4.4 18:43:37 10° NW 18:46:29 35° N 18:46:29 35° N
STARLINK-1050 4.0 18:43:16 10° WSW 18:47:21 57° NNW 18:47:59 50° NNE
MetOp-A 4.1 18:46:48 50° ESE 18:47:53 61° ENE 18:53:10 10° N
Lacrosse 5 rocket 2.0 18:43:36 10° NW 18:48:04 48° NNE 18:48:11 48° NE
Cosmos 2219 3.1 18:44:43 10° NNW 18:50:31 79° ENE 18:52:15 47° SE
STARLINK-1055 4.1 18:48:16 10° W 18:52:20 54° NNW 18:52:45 52° N
Cosmos 1092 Rocket 3.9 18:47:09 10° N 18:53:33 88° E 18:58:47 16° S
Lacrosse 5 1.9 18:49:07 10° WSW 18:54:12 76° NW 18:55:38 47° NE
STARLINK-1022 4.1 18:53:16 10° W 18:57:19 52° NNW 18:57:32 51° N
Meteor 2-4 Rocket 4.1 18:51:40 10° NNW 18:57:34 70° W 19:03:28 10° S
USA 234 4.0 18:55:21 30° NE 18:57:45 40° N 19:03:45 10° NW
Cosmos 1634 Rocket 3.9 18:52:09 10° S 18:58:24 67° E 19:04:41 10° NNE
GP-B 4.4 19:01:33 29° NNE 19:01:33 29° NNE 19:03:50 10° N
Cosmos 2263 Rocket 4.2 18:57:13 10° N 18:59:45 14° NNE 18:59:45 14° NNE
Gbstr 26 Del rocket 3.5 18:57:25 10° W 19:01:37 58° NNW 19:02:07 55° NNE
Cosmos 1814 Rocket 3.9 18:56:33 10° SSW 19:01:41 82° WNW 19:06:52 10° NNE
STARLINK-1042 4.3 18:58:19 10° W 19:02:20 50° NNW 19:02:20 50° NNW
USA 186 4.3 19:05:54 17° NW 19:05:54 17° NW 19:06:56 10° NW
Cosmos 2195 Rocket 4.4 18:59:17 10° N 19:05:27 89° W 19:08:27 33° S
SJ 16-02 3.8 19:03:34 10° NW 19:06:51 21° W 19:10:07 10° SW
STARLINK-1056 4.4 19:03:19 10° W 19:07:06 47° NNW 19:07:06 47° NNW
Cosmos 841 Rocket 3.7 19:02:40 10° SSW 19:07:47 66° WNW 19:12:58 10° NNE
NOSS 3-2 (A) 3.9 19:00:47 10° NW 19:08:17 84° NE 19:10:56 48° SE
STARLINK-48 4.4 19:04:47 10° WNW 19:07:38 46° WNW 19:07:38 46° WNW
ARGOS 3.8 19:04:37 13° S 19:09:20 55° W 19:14:41 10° NNW
Resurs 01 Rocket 2.9 19:11:23 32° N 19:11:23 32° N 19:13:53 10° N
Cosmos 2298 Rocket 4.1 19:05:52 10° NNW 19:11:12 75° WSW 19:12:02 62° S
NOSS 3-2 (C) 4.0 19:04:44 10° NW 19:12:07 67° NE 19:13:51 54° E
ARGOS Delta rocket 4.3 19:13:10 42° SW 19:14:10 51° W 19:18:34 10° NNW
SPOT 3 Rocket 3.8 19:13:10 46° SSW 19:14:38 67° WSW 19:19:51 10° NNW
Meteor 1-11 Rocket 3.5 19:09:36 10° S 19:15:11 88° E 19:20:45 10° NNE
CENTAUR R/B 3.2 19:13:18 10° NW 19:21:10 64° NE 19:22:39 56° E
CZ-2C R/B 4.3 19:19:00 10° S 19:24:30 44° W 19:29:53 10° NNW
Cosmos 2150 Rocket 4.4 19:22:35 10° NNW 19:27:55 60° WSW 19:28:23 58° SW
Cosmos 1125 Rocket 4.0 19:27:50 10° NNW 19:32:02 56° NNW 19:32:02 56° NNW
Cosmos 540 Rocket 4.4 19:29:32 10° SW 19:34:27 45° WNW 19:39:25 10° NNE
ATLAS 3B R/B 3.1 19:29:28 10° NNW 19:35:31 49° NNE 19:35:31 49° NNE
Cosmos 2297 Rocket 2.8 19:41:38 10° NW 19:46:50 53° W 19:46:50 53° W
ATLAS 2AS CENTAUR R/B 4.3 19:50:38 10° SSW 19:53:45 27° SSW 19:53:45 27° SSW
Cosmos 2227 Rocket 3.3 20:00:54 10° NW 20:05:17 39° W 20:05:17 39° W
USA 238 DEB 4.5 20:02:08 10° NW 20:08:57 46° WSW 20:09:21 46° SW
USA 238 4.5 20:02:14 10° NW 20:09:03 47° WSW 20:09:24 46° SW
Lacrosse 5 rocket 4.4 20:22:57 10° WNW 20:23:51 15° WNW 20:23:51 15° WNW
Lacrosse 5 4.4 20:33:20 10° WNW 20:34:52 18° WNW 20:34:52 18° WNW
USA 234 4.3 20:42:41 41° NW 20:42:41 41° NW 20:46:45 10° NW
Cosmos 2263 Rocket 4.4 20:39:50 10° NNW 20:41:27 19° NNW 20:41:27 19° NNW
CENTAUR R/B 4.2 21:04:18 10° NW 21:09:51 37° W 21:09:51 37° W
